NEUDOSE

Last updated on Tue Nov 28 2023 00:02:06 GMT+0000 (Coordinated Universal Time)

1 56315U 98067VG 23331.16635290 .08774071 12333-4 67045-3 0 9999 2 56315 51.6102 214.5024 0006245 239.2595 120.7816 16.39517407 33977

Satellite not in orbit